Weather History for Sparrevohn, AK

Change the Weather History Date:

Thursday, March 7, 2013

  Actual Average Record
Temperature  
Mean Temperature 37 °F -  
Max Temperature 39 °F 23 °F 43 °F (2005)
Min Temperature 35 °F 8 °F -17 °F (2007)
Degree Days  
Heating Degree Days 28    
Moisture  
Dew Point 21 °F    
Average Humidity 50    
Maximum Humidity 56    
Minimum Humidity 45    
Precipitation  
Precipitation 0.00 in - - ()
Sea Level Pressure  
Sea Level Pressure 29.18 in    
Wind  
Wind Speed 25 mph (ESE)    
Max Wind Speed 46 mph    
Max Gust Speed 66 mph    
Visibility 10 miles    
Events Rain    
Averages and records for this station are not official NWS values.
T = Trace of Precipitation, MM = Missing Value Source: NWS Daily Summary

Daily Weather History Graph

Daily Weather History Graph

Search for Another Location

Airport:

Trip Planner

Search our weather history database for the weather conditions in past years. The results will help you decide how hot, cold, wet, or windy it might be!

Date:

Astronomy

Mar. 07, 2013 Rise Set
Actual Time 8:02 AM AKST 7:04 PM AKST
Civil Twilight 7:20 AM AKST 7:47 PM AKST
Nautical Twilight 6:30 AM AKST 8:37 PM AKST
Astronomical Twilight 5:38 AM AKST 9:30 PM AKST
Moon 6:11 AM AKST (3/7) 2:08 PM AKST (3/7)
Length of Visible Light 12h 27m
Length of Day
11h 01m
Waning Crescent, 19% of the Moon is Illuminated
Mar 7
Waning Crescent
Mar 11
New
Mar 19
First Quarter
Mar 27
Full
Apr 2
Last Quarter

Hourly Weather History & Observations

Time (AKST) Temp. Windchill Dew Point Humidity Pressure Visibility Wind Dir Wind Speed Gust Speed Precip Events Conditions
12:55 AM 38.7 °F 29.5 °F 19.6 °F 46% 29.50 in 10.0 mi SE 17.3 mph 28.8 mph N/A   Overcast
1:55 AM 39.6 °F 27.7 °F 20.3 °F 46% 29.45 in 10.0 mi SE 31.1 mph 42.6 mph N/A   Overcast
2:55 AM 39.7 °F 29.2 °F 22.6 °F 50% 29.39 in 10.0 mi ESE 24.2 mph 35.7 mph N/A   Mostly Cloudy
3:55 AM 39.6 °F 30.3 °F 20.5 °F 46% 29.33 in 10.0 mi ESE 18.4 mph 38.0 mph N/A   Overcast
4:55 AM 39.7 °F 31.2 °F 20.8 °F 47% 29.28 in 10.0 mi ESE 16.1 mph 35.7 mph N/A   Overcast
5:55 AM 39.6 °F 30.6 °F 20.5 °F 46% 29.24 in 10.0 mi SE 17.3 mph 28.8 mph N/A   Overcast
6:55 AM 39.4 °F 32.3 °F 21.6 °F 49% 29.22 in 10.0 mi East 11.5 mph 23.0 mph N/A   Mostly Cloudy
7:55 AM 39.9 °F 29.0 °F 22.8 °F 50% 29.20 in 10.0 mi ESE 26.5 mph 40.3 mph N/A   Mostly Cloudy
8:55 AM 39.2 °F 29.6 °F 23.5 °F 53% 29.16 in 10.0 mi East 19.6 mph 34.5 mph N/A   Overcast
9:55 AM 39.6 °F 31.0 °F 23.2 °F 52% 29.14 in 10.0 mi ESE 16.1 mph 31.1 mph N/A   Mostly Cloudy
10:55 AM 39.7 °F 29.5 °F 21.9 °F 49% 29.13 in 10.0 mi ESE 23.0 mph 50.6 mph N/A   Mostly Cloudy
11:55 AM 39.4 °F 29.0 °F 22.3 °F 50% 29.12 in 10.0 mi ESE 23.0 mph 43.7 mph N/A   Mostly Cloudy
12:55 PM 39.9 °F 28.4 °F 20.5 °F 46% 29.11 in 10.0 mi ESE 29.9 mph 48.3 mph N/A   Mostly Cloudy
1:55 PM 39.2 °F 27.4 °F 21.4 °F 49% 29.12 in 10.0 mi ESE 29.9 mph 43.7 mph N/A   Partly Cloudy
2:55 PM 39.4 °F 26.7 °F 20.8 °F 47% 29.08 in 10.0 mi ESE 35.7 mph 54.1 mph N/A   Clear
3:55 PM 39.7 °F 26.9 °F 19.9 °F 45% 29.07 in 10.0 mi ESE 38.0 mph 65.6 mph N/A   Scattered Clouds
4:09 PM 39.2 °F 27.4 °F 21.2 °F 49% 29.07 in 9.0 mi ESE 29.9 mph 58.7 mph N/A Rain Light Rain Showers
4:55 PM 38.7 °F 26.1 °F 21.4 °F 50% 29.08 in 10.0 mi ESE 33.4 mph 59.8 mph N/A Rain Light Rain Showers
5:55 PM 36.9 °F 23.6 °F 22.1 °F 55% 29.10 in 10.0 mi ESE 33.4 mph 48.3 mph N/A Rain Light Rain Showers
6:24 PM 37.4 °F 24.6 °F 23.0 °F 56% 29.11 in 10.0 mi ESE 32.2 mph 47.2 mph N/A   Clear
6:39 PM 37.4 °F 25.4 °F 23.0 °F 56% 29.13 in 10.0 mi ESE 27.6 mph 48.3 mph N/A Rain Light Rain Showers
6:55 PM 36.9 °F 23.8 °F 21.7 °F 54% 29.12 in 10.0 mi ESE 32.2 mph 51.8 mph N/A Rain Light Rain Showers
7:24 PM 37.4 °F 22.5 °F 21.2 °F 52% 29.12 in 10.0 mi ESE 46.0 mph 55.2 mph N/A   Clear
7:55 PM 37.2 °F 22.6 °F 20.8 °F 52% 29.13 in 10.0 mi ESE 43.7 mph 58.7 mph N/A   Clear
8:55 PM 37.2 °F 24.9 °F 19.9 °F 50% 29.15 in 10.0 mi ESE 28.8 mph 50.6 mph N/A   Clear
9:55 PM 36.9 °F 25.1 °F 20.3 °F 51% 29.16 in 10.0 mi ESE 25.3 mph 44.9 mph N/A   Clear
10:55 PM 36.7 °F 23.4 °F 19.9 °F 51% 29.15 in 10.0 mi ESE 33.4 mph 47.2 mph N/A   Partly Cloudy
11:39 PM 35.6 °F 21.5 °F 19.4 °F 52% 29.15 in 10.0 mi ESE 35.7 mph 50.6 mph N/A Rain Light Rain Showers
11:54 PM 37.4 °F 23.6 °F 19.4 °F 48% 29.16 in 10.0 mi ESE 38.0 mph 51.8 mph N/A   Clear
11:55 PM 37.2 °F 22.9 °F 19.4 °F 49% 29.16 in 10.0 mi ESE 41.4 mph 51.8 mph N/A   Clear